Location: Township of Marena
(38.1747°N, 99.6798°W)
Time: 13:18:17
(UTC+00:00)

FALCON 9 DEB - Pass Details

Date: 26 October 2020
Orbit: 378 x 394 km, 53.0° (Epoch: 28 November)

Event Time Altitude Azimuth Distance (km) Brightness Sun altitude
Rises 00:38:31 0° 242° (WSW) 2,296 8.3 -10.8°
Reaches altitude 10° 00:40:39 10° 249° (WSW) 1,438 7.2 -11.2°
Maximum altitude 00:43:44 43° 323° (NW) 569 3.9 -11.8°
Enters shadow 00:46:34 12° 35° (NE) 1,334 5.2 -12.4°
